Oxford, NC

4:14 PM EST on November 12, 2019 (GMT -0500)
Henderson-Oxford

Weather History for KHNZ - September, 2019

Change the Weather History Date:

Friday, September 6, 2019

  Actual Average (WUND) Record (WUND)
Temperature  
Mean Temperature 75 °F -  
Max Temperature 85 °F - - (-1)
Min Temperature 65 °F - - (-1)
Cooling Degree Days 10    
Growing Degree Days 25 (Base 50)    
Moisture  
Dew Point 61 °F    
Average Humidity 71    
Maximum Humidity 96    
Minimum Humidity 40    
Precipitation  
Precipitation 0.07 in - - ()
Sea Level Pressure  
Sea Level Pressure 29.76 in    
Wind  
Wind Speed 11 mph (NNW)    
Max Wind Speed 20 mph    
Max Gust Speed 34 mph    
Visibility 10 miles    
Events Rain    
Averages and records for this station are not official NWS values.
T = Trace of Precipitation, MM = Missing Value Source: NWS Daily Summary

Daily Weather History Graph

Daily Weather History Graph

Search for Another Location

Airport or City:

Astronomy

Sep. 06, 2019 Rise Set
Actual Time 6:49 AM EDT 7:35 PM EDT
Civil Twilight 6:23 AM EDT 8:01 PM EDT
Nautical Twilight 5:52 AM EDT 8:32 PM EDT
Astronomical Twilight 5:20 AM EDT 9:03 PM EDT
Moon 2:42 PM EDT (9/6) 12:03 AM EDT (9/6)
Length of Visible Light 13h 38m
Length of Day
12h 45m
First Quarter, 55% of the Moon is Illuminated
Sep 6
First Quarter
Sep 14
Full
Sep 21
Last Quarter
Sep 28
New
Oct 5
First Quarter

Hourly Weather History & Observations

Time (EDT) Temp. Heat Index Dew Point Humidity Pressure Visibility Wind Dir Wind Speed Gust Speed Precip Events Conditions
12:15 AM 68.5 °F - 65.3 °F 89% 29.77 in 10.0 mi NNE 17.3 mph 25.3 mph 0.01 in   Overcast
12:35 AM 68.2 °F - 65.1 °F 90% 29.77 in 10.0 mi NNE 6.9 mph 21.9 mph 0.01 in   Overcast
12:55 AM 67.6 °F - 64.8 °F 90% 29.76 in 10.0 mi NNE 16.1 mph 25.3 mph 0.02 in   Light Drizzle
1:15 AM 67.1 °F - 65.3 °F 94% 29.75 in 7.0 mi NNE 17.3 mph 25.3 mph N/A Rain Light Rain
1:35 AM 66.7 °F - 65.3 °F 95% 29.76 in 5.0 mi North 9.2 mph 26.5 mph N/A Rain Light Rain
1:55 AM 66.6 °F - 65.5 °F 96% 29.74 in 7.0 mi North 15.0 mph 25.3 mph N/A Rain Light Rain
2:15 AM 66.7 °F - 65.5 °F 96% 29.74 in 7.0 mi North 8.1 mph 20.7 mph N/A Rain Light Rain
2:35 AM 66.7 °F - 65.3 °F 95% 29.74 in 7.0 mi NNE 12.7 mph 23.0 mph 0.01 in Rain Light Rain
2:55 AM 67.1 °F - 65.3 °F 94% 29.70 in 10.0 mi NNE 16.1 mph 20.7 mph 0.01 in   Light Drizzle
3:15 AM 67.3 °F - 64.9 °F 92% 29.70 in 10.0 mi North 10.4 mph 20.7 mph N/A   Overcast
3:35 AM 66.9 °F - 64.4 °F 92% 29.70 in 10.0 mi North 10.4 mph 26.5 mph N/A   Drizzle
3:55 AM 67.1 °F - 64.0 °F 90% 29.70 in 10.0 mi North 19.6 mph 34.5 mph 0.01 in   Overcast
4:15 AM 66.7 °F - 63.9 °F 90% 29.69 in 10.0 mi North 15.0 mph 23.0 mph N/A   Light Drizzle
4:35 AM 66.7 °F - 63.5 °F 89% 29.70 in 10.0 mi North 12.7 mph 23.0 mph N/A   Mostly Cloudy
4:55 AM 67.1 °F - 63.1 °F 87% 29.71 in 10.0 mi North 12.7 mph 25.3 mph N/A   Overcast
5:15 AM 67.5 °F - 63.3 °F 87% 29.70 in 10.0 mi North 16.1 mph 24.2 mph N/A   Overcast
5:35 AM 67.6 °F - 63.5 °F 87% 29.70 in 10.0 mi North 13.8 mph 28.8 mph 0.01 in Rain Rain
5:55 AM 67.5 °F - 63.5 °F 87% 29.71 in 10.0 mi North 11.5 mph 25.3 mph 0.01 in   Overcast
6:15 AM 66.9 °F - 63.5 °F 89% 29.71 in 10.0 mi North 11.5 mph 21.9 mph N/A Rain Light Rain
6:35 AM 66.2 °F - 63.5 °F 91% 29.71 in 10.0 mi NNW 10.4 mph 26.5 mph 0.01 in   Overcast
6:55 AM 65.3 °F - 62.8 °F 92% 29.71 in 10.0 mi North 10.4 mph 23.0 mph 0.01 in   Overcast
7:15 AM 65.8 °F - 62.2 °F 88% 29.71 in 10.0 mi NNW 12.7 mph 20.7 mph N/A   Overcast
7:35 AM 66.2 °F - 61.9 °F 86% 29.72 in 10.0 mi NNW 9.2 mph 24.2 mph N/A   Overcast
7:55 AM 66.4 °F - 61.7 °F 85% 29.73 in 10.0 mi NNW 12.7 mph 24.2 mph N/A   Overcast
8:15 AM 66.6 °F - 61.3 °F 83% 29.73 in 10.0 mi NNW 12.7 mph 23.0 mph N/A   Overcast
8:35 AM 67.1 °F - 61.3 °F 82% 29.74 in 10.0 mi North 13.8 mph 19.6 mph 0.01 in   Overcast
9:15 AM 68.9 °F - 61.9 °F 78% 29.75 in 10.0 mi NNW 12.7 mph 20.7 mph N/A   Overcast
9:35 AM 69.1 °F - 62.1 °F 78% 29.75 in 10.0 mi North 8.1 mph 23.0 mph N/A   Overcast
9:55 AM 69.3 °F - 61.9 °F 77% 29.76 in 10.0 mi NNW 8.1 mph 19.6 mph N/A   Overcast
10:15 AM 69.8 °F - 61.3 °F 74% 29.77 in 10.0 mi NNW 12.7 mph 21.9 mph N/A   Mostly Cloudy
10:35 AM 71.8 °F - 61.5 °F 70% 29.77 in 10.0 mi NNW 12.7 mph 21.9 mph N/A   Mostly Cloudy
10:55 AM 71.8 °F - 61.2 °F 69% 29.77 in 10.0 mi NNW 10.4 mph 17.3 mph N/A   Mostly Cloudy
11:15 AM 70.7 °F - 59.9 °F 69% 29.78 in 10.0 mi NNW 15.0 mph 24.2 mph N/A   Scattered Clouds
11:35 AM 72.9 °F - 59.5 °F 63% 29.79 in 10.0 mi NNW 17.3 mph 27.6 mph N/A   Scattered Clouds
11:55 AM 74.7 °F - 60.3 °F 61% 29.79 in 10.0 mi NNW 12.7 mph 23.0 mph N/A   Mostly Cloudy
12:15 PM 76.3 °F - 60.3 °F 57% 29.79 in 10.0 mi NW 13.8 mph 21.9 mph N/A   Scattered Clouds
12:35 PM 77.2 °F - 59.5 °F 54% 29.79 in 10.0 mi NNW 9.2 mph 23.0 mph N/A   Clear
12:55 PM 78.4 °F - 59.2 °F 51% 29.79 in 10.0 mi NNW 10.4 mph 19.6 mph N/A   Clear
1:15 PM 79.3 °F - 58.6 °F 49% 29.79 in 10.0 mi NNW 10.4 mph 20.7 mph N/A   Clear
1:35 PM 80.6 °F 81.0 °F 58.6 °F 47% 29.79 in 10.0 mi NNW 8.1 mph 23.0 mph N/A   Clear
1:55 PM 80.8 °F 81.2 °F 58.6 °F 47% 29.78 in 10.0 mi North 5.8 mph 21.9 mph N/A   Clear
2:15 PM 82.2 °F 82.4 °F 59.5 °F 46% 29.77 in 10.0 mi NNW 8.1 mph 18.4 mph N/A   Clear
2:35 PM 81.9 °F 82.1 °F 59.2 °F 46% 29.77 in 10.0 mi NNW 10.4 mph 23.0 mph N/A   Clear
2:55 PM 83.8 °F 83.8 °F 60.1 °F 44% 29.77 in 10.0 mi NW 8.1 mph - N/A   Clear
3:15 PM 83.5 °F 83.6 °F 60.3 °F 45% 29.76 in 10.0 mi WNW 6.9 mph - N/A   Scattered Clouds
3:35 PM 83.5 °F 83.4 °F 59.2 °F 44% 29.77 in 10.0 mi NNW 11.5 mph 17.3 mph N/A   Scattered Clouds
3:55 PM 83.7 °F 83.9 °F 60.8 °F 46% 29.76 in 10.0 mi West 6.9 mph - N/A   Scattered Clouds
4:15 PM 84.4 °F 84.4 °F 60.4 °F 44% 29.76 in 10.0 mi NNW 5.8 mph - N/A   Scattered Clouds
4:35 PM 84.2 °F 84.4 °F 60.4 °F 45% 29.76 in 10.0 mi Calm Calm - N/A   Scattered Clouds
4:55 PM 85.1 °F 84.8 °F 59.5 °F 42% 29.77 in 10.0 mi NW 11.5 mph - N/A   Scattered Clouds
5:15 PM 84.7 °F 84.2 °F 58.8 °F 41% 29.77 in 10.0 mi Calm Calm - N/A   Scattered Clouds
5:35 PM 84.2 °F 83.5 °F 57.2 °F 40% 29.77 in 10.0 mi West 9.2 mph - N/A   Clear
5:55 PM 83.7 °F 83.1 °F 57.4 °F 41% 29.78 in 10.0 mi WNW 8.1 mph - N/A   Clear
6:15 PM 83.3 °F 82.6 °F 56.7 °F 40% 29.78 in 10.0 mi WNW 4.6 mph - N/A   Clear
6:35 PM 82.4 °F 82.0 °F 56.8 °F 42% 29.79 in 10.0 mi Calm Calm - N/A   Clear
6:55 PM 81.0 °F 81.1 °F 57.6 °F 45% 29.79 in 10.0 mi Calm Calm - N/A   Clear
7:15 PM 77.2 °F - 59.5 °F 54% 29.79 in 10.0 mi Calm Calm - N/A   Clear
7:35 PM 77.0 °F - 58.1 °F 52% 29.79 in 10.0 mi Calm Calm - N/A   Clear
7:55 PM 71.4 °F - 61.0 °F 70% 29.80 in 10.0 mi Calm Calm - N/A   Clear
8:15 PM 71.1 °F - 62.2 °F 74% 29.80 in 10.0 mi Calm Calm - N/A   Clear
8:35 PM 69.8 °F - 62.2 °F 77% 29.81 in 10.0 mi Calm Calm - N/A   Clear
8:55 PM 70.5 °F - 60.4 °F 70% 29.81 in 10.0 mi Calm Calm - N/A   Clear
9:15 PM 67.6 °F - 61.5 °F 81% 29.81 in 10.0 mi Calm Calm - N/A   Clear
9:35 PM 67.1 °F - 62.4 °F 85% 29.81 in 10.0 mi Calm Calm - N/A   Clear
9:55 PM 66.2 °F - 61.7 °F 85% 29.82 in 10.0 mi Calm Calm - N/A   Clear
10:15 PM 65.3 °F - 61.9 °F 89% 29.82 in 10.0 mi Calm Calm - N/A   Clear
10:35 PM 65.3 °F - 61.3 °F 87% 29.82 in 10.0 mi Calm Calm - N/A   Clear
11:15 PM 66.2 °F - 61.0 °F 83% 29.82 in 10.0 mi Calm Calm - N/A   Clear
11:35 PM 67.5 °F - 60.8 °F 79% 29.82 in 10.0 mi Calm Calm - N/A   Clear
11:55 PM 66.7 °F - 60.3 °F 80% 29.82 in 10.0 mi Calm Calm - N/A   Clear